Location: Marcé
(47.5801°N, 0.3280°W)
Time: 06:58:09
(UTC+01:00)

Envisat - Pass Details

Date: 22 October 2021
Orbit: 764 x 766 km, 98.2° (Epoch: 04 December)

Event Time Altitude Azimuth Distance (km) Brightness Sun altitude
Rises 05:52:28 0° 28° (NNE) 3,244 6.8 -27.2°
Reaches altitude 10° 05:55:38 10° 49° (NE) 2,311 6.3 -26.6°
Maximum altitude 05:58:53 17° 89° (E) 1,873 5.8 -26.1°
Drops below altitude 10° 06:02:06 10° 129° (SE) 2,299 5.9 -25.6°
Sets 06:05:13 0° 149° (SSE) 3,219 6.5 -25.1°
